Location: Newark
(21.1200°N, 73.4000°E)
Time: 11:40:34
(UTC+00:00)

Vanguard 2 Rocket - Pass Details

Date: 21 January 2020
Orbit: 554 x 3327 km, 32.9° (Epoch: 19 February)

Event Time Altitude Azimuth Distance (km) Brightness Sun altitude
Exits shadow 00:45:23 22° 285° (WNW) 1,519 7.4 -14.2°
Maximum altitude 00:48:10 43° 346° (NNW) 1,133 7.1 -13.6°
Drops below altitude 10° 00:54:52 10° 56° (ENE) 3,132 10.2 -12.1°
Sets 00:58:45 0° 63° (ENE) 4,560 11.2 -11.2°
